User: anonymous   Login
Location: Krasnoyarskiy Pitomnik
(51.1333°N, 71.6167°E)
Time: 18:38:59
(UTC+00:00)
Language:

IRIDIUM 33 DEB - Orbit

View from above orbital plane
View from above orbital plane
View from above satellite
View from above satellite

Ground track
Ground track

The orbit data is extracted from the following two-line orbital elements,

1 38244U 97051ZU  22114.47478656  .00195593  00000-0  53361-2 0  9992
2 38244  86.4084 182.1634 0006979 248.1443 111.9067 15.36650928656877
Epoch (UTC): 24 April 2022 11:23:41
Eccentricity: 0.0006979
inclination: 86.4084°
perigee height: 451 km
apogee height: 461 km
right ascension of ascending node: 182.1634°
argument of perigee: 248.1443°
revolutions per day: 15.36650928
mean anomaly at epoch: 111.9067°
orbit number at epoch: 65687

The dashed part of the orbit path shows where the satellite is in the earth's shadow,  

DLR